GW5516 Weather Reports


Display with metric or nautical units.
time (UTC)temp
F
wind
direction
speed
MPH
gust
MPH
rain 1hr
in
rain 24hr
in
rain mn
in
humidity
%
barometer
mb
20260507132905 52 135 8.0 10.0 0.00 0.00 0.00 57 1019.9
20260507132401 52 144 5.0 8.0 0.00 0.00 0.00 58 1019.7
20260507131858 52 129 7.0 9.0 0.00 0.00 0.00 60 1019.8
20260507131355 52 128 5.0 5.0 0.00 0.00 0.00 61 1019.7
20260507130852 51 135 4.0 7.0 0.00 0.00 0.00 64 1019.9
20260507130348 51 134 4.0 6.0 0.00 0.00 0.00 66 1019.8
20260507125848 50 144 3.0 4.0 0.00 0.00 0.00 64 1019.9
20260507125344 50 136 4.0 5.0 0.00 0.00 0.00 67 1019.7
20260507124842 49 130 3.0 4.0 0.00 0.00 0.00 70 1019.7
20260507124338 48 152 5.0 6.0 0.00 0.00 0.00 66 1019.9
20260507123837 48 124 3.0 4.0 0.00 0.00 0.00 71 1019.7
20260507123333 47 117 4.0 4.0 0.00 0.00 0.00 71 1019.7
20260507122830 46 125 3.0 4.0 0.00 0.00 0.00 71 1019.6
20260507122325 45 130 3.0 4.0 0.00 0.00 0.00 74 1019.3
20260507121823 44 125 4.0 5.0 0.00 0.00 0.00 75 1019.4
20260507121317 44 148 4.0 4.0 0.00 0.00 0.00 78 1019.6
20260507120814 44 132 4.0 5.0 0.00 0.00 0.00 81 1019.4
20260507120310 43 129 4.0 5.0 0.00 0.00 0.00 84 1019.5
20260507115807 43 125 3.0 4.0 0.00 0.00 0.00 86 1019.5
20260507115306 43 118 2.0 3.0 0.00 0.00 0.00 90 1019.5
20260507114758 42 38 0.0 2.0 0.00 0.00 0.00 91 1019.6
20260507114256 42 3 0.0 2.0 0.00 0.00 0.00 90 1019.6
20260507113753 42 54 2.0 3.0 0.00 0.00 0.00 89 1019.3
20260507113250 42 79 2.0 3.0 0.00 0.00 0.00 90 1019.2
20260507112748 42 44 2.0 2.0 0.00 0.00 0.00 91 1019.1
20260507112244 42 123 2.0 4.0 0.00 0.00 0.00 91 1018.9
20260507111742 42 88 1.0 1.0 0.00 0.00 0.00 92 1019.3
20260507111238 42 95 1.0 1.0 0.00 0.00 0.00 92 1019.0
20260507110734 42 145 2.0 2.0 0.00 0.00 0.00 92 1019.0
20260507110231 42 131 2.0 3.0 0.00 0.00 0.00 91 1018.8
20260507105728 42 71 1.0 2.0 0.00 0.00 0.00 90 1018.9
20260507105224 42 119 3.0 3.0 0.00 0.00 0.00 90 1018.8
20260507104722 42 147 1.0 2.0 0.00 0.00 0.00 91 1018.7
20260507104218 42 169 2.0 3.0 0.00 0.00 0.00 90 1018.7
20260507103714 42 135 3.0 3.0 0.00 0.00 0.00 89 1019.0
20260507103210 43 123 3.0 3.0 0.00 0.00 0.00 83 1019.0
20260507102707 42 64 2.0 2.0 0.00 0.00 0.00 87 1018.9
20260507102204 42 69 0.0 1.0 0.00 0.00 0.00 88 1019.0
20260507101700 43 326 0.0 0.0 0.00 0.00 0.00 89 1018.9
20260507101155 43 120 1.0 2.0 0.00 0.00 0.00 88 1019.1
20260507100653 43 236 0.0 2.0 0.00 0.00 0.00 89 1019.0
20260507100151 43 118 2.0 3.0 0.00 0.00 0.00 85 1019.0
20260507095649 42 113 2.0 3.0 0.00 0.00 0.00 89 1018.8
20260507095145 42 117 2.0 3.0 0.00 0.00 0.00 89 1018.7
20260507094641 41 131 2.0 3.0 0.00 0.00 0.00 89 1018.8
20260507094138 41 89 2.0 4.0 0.00 0.00 0.00 90 1019.0
20260507093636 41 121 2.0 3.0 0.00 0.00 0.00 90 1019.0
20260507093134 41 116 2.0 2.0 0.00 0.00 0.00 90 1019.2
20260507092631 40 117 1.0 2.0 0.00 0.00 0.00 90 1019.1
20260507092127 40 109 2.0 2.0 0.00 0.00 0.00 89 1019.1
20260507091624 40 124 2.0 3.0 0.00 0.00 0.00 90 1019.0
20260507091119 40 127 3.0 4.0 0.00 0.00 0.00 90 1019.1
20260507090616 39 134 3.0 3.0 0.00 0.00 0.00 91 1019.1
20260507090113 39 167 2.0 3.0 0.00 0.00 0.00 91 1019.0
20260507085610 39 129 3.0 4.0 0.00 0.00 0.00 91 1019.0
20260507085107 39 135 2.0 2.0 0.00 0.00 0.00 91 1018.8
20260507084603 39 140 1.0 2.0 0.00 0.00 0.00 90 1019.0
20260507084100 39 143 0.0 2.0 0.00 0.00 0.00 89 1018.9
20260507083556 40 122 2.0 2.0 0.00 0.00 0.00 89 1018.8
20260507083054 40 122 2.0 3.0 0.00 0.00 0.00 89 1018.8
20260507082549 40 141 2.0 2.0 0.00 0.00 0.00 89 1018.9
20260507082046 40 100 1.0 2.0 0.00 0.00 0.00 89 1018.9
20260507081542 40 161 0.0 2.0 0.00 0.00 0.00 89 1018.8
20260507081040 40 138 2.0 2.0 0.00 0.00 0.00 88 1018.8
20260507080535 41 156 2.0 2.0 0.00 0.00 0.00 86 1018.7
20260507080032 40 111 1.0 2.0 0.00 0.00 0.00 87 1018.7
20260507075527 41 130 0.0 2.0 0.00 0.00 0.00 86 1018.7
20260507075024 41 108 1.0 3.0 0.00 0.00 0.00 86 1018.9
20260507074521 40 131 2.0 2.0 0.00 0.00 0.00 87 1018.8
20260507074020 41 130 2.0 2.0 0.00 0.00 0.00 87 1018.7
20260507073515 41 110 2.0 3.0 0.00 0.00 0.00 88 1018.8
20260507073012 40 117 2.0 2.0 0.00 0.00 0.00 89 1019.0
20260507072509 40 77 0.0 1.0 0.00 0.00 0.00 88 1019.1
20260507072006 40 66 0.0 0.0 0.00 0.00 0.00 85 1019.4
20260507071504 41 97 0.0 2.0 0.00 0.00 0.00 83 1019.3
20260507071000 40 83 1.0 1.0 0.00 0.00 0.00 86 1019.3
20260507070457 41 124 0.0 2.0 0.00 0.00 0.00 85 1019.3
20260507065954 41 117 1.0 2.0 0.00 0.00 0.00 85 1019.3
20260507065451 42 122 2.0 3.0 0.00 0.00 0.00 84 1019.4
20260507064948 42 132 2.0 2.0 0.00 0.00 0.00 85 1019.5
20260507064446 41 91 0.0 2.0 0.00 0.00 0.00 85 1019.4
20260507063943 41 129 1.0 2.0 0.00 0.00 0.00 85 1019.6
20260507063440 42 104 1.0 1.0 0.00 0.00 0.00 85 1019.6
20260507062937 42 93 1.0 2.0 0.00 0.00 0.00 85 1019.4
20260507062434 41 60 0.0 1.0 0.00 0.00 0.00 85 1019.3
20260507061932 42 96 0.0 1.0 0.00 0.00 0.00 84 1019.2
20260507061430 42 66 0.0 1.0 0.00 0.00 0.00 82 1019.3
20260507060928 42 89 0.0 1.0 0.00 0.00 0.00 82 1019.3
20260507060424 43 104 0.0 1.0 0.00 0.00 0.00 81 1019.3
20260507055921 43 116 0.0 1.0 0.00 0.00 0.00 79 1019.3
20260507055417 44 138 0.0 2.0 0.00 0.00 0.00 79 1019.4
20260507054914 44 107 2.0 2.0 0.00 0.00 0.00 80 1019.3
20260507054409 43 122 2.0 2.0 0.00 0.00 0.00 82 1019.4
20260507053907 44 129 1.0 2.0 0.00 0.00 0.00 80 1019.4
20260507053404 44 97 1.0 1.0 0.00 0.00 0.00 78 1019.4
20260507052903 44 103 0.0 0.0 0.00 0.00 0.00 79 1019.6
20260507052400 45 60 0.0 1.0 0.00 0.00 0.00 77 1019.5
20260507051857 45 93 0.0 2.0 0.00 0.00 0.00 75 1019.3
20260507051355 45 150 0.0 1.0 0.00 0.00 0.00 75 1019.3
20260507050851 46 111 0.0 1.0 0.00 0.00 0.00 73 1019.2
20260507050348 46 75 2.0 2.0 0.00 0.00 0.00 70 1019.3
20260507045845 47 46 2.0 2.0 0.00 0.00 0.00 70 1019.3
20260507045341 47 51 0.0 1.0 0.00 0.00 0.00 71 1019.4
20260507044838 47 32 1.0 2.0 0.00 0.00 0.00 70 1019.1
20260507044335 47 31 1.0 2.0 0.00 0.00 0.00 70 1019.2
20260507043831 47 48 1.0 2.0 0.00 0.00 0.00 69 1019.2
20260507043327 48 36 0.0 2.0 0.00 0.00 0.00 67 1019.1
20260507042824 48 346 1.0 3.0 0.00 0.00 0.00 66 1019.3
20260507042319 48 1 2.0 2.0 0.00 0.00 0.00 66 1019.2
20260507041816 48 47 2.0 3.0 0.00 0.00 0.00 66 1019.0
20260507041313 49 11 3.0 4.0 0.00 0.00 0.00 66 1019.0
20260507040811 49 12 3.0 3.0 0.00 0.00 0.00 65 1019.1
20260507040306 49 41 2.0 3.0 0.00 0.00 0.00 65 1019.2
20260507035802 49 20 2.0 3.0 0.00 0.00 0.00 66 1019.0
20260507035258 50 352 2.0 5.0 0.00 0.00 0.00 65 1019.1
20260507034756 50 350 4.0 4.0 0.00 0.00 0.00 64 1019.0
20260507034252 50 16 3.0 3.0 0.00 0.00 0.00 65 1018.9
20260507033751 50 348 2.0 4.0 0.00 0.00 0.00 65 1018.9
20260507033248 50 29 3.0 4.0 0.00 0.00 0.00 64 1018.9
20260507032745 50 334 2.0 4.0 0.00 0.00 0.00 63 1018.7
20260507032241 50 347 5.0 5.0 0.00 0.00 0.00 63 1018.7
20260507031738 51 353 2.0 4.0 0.00 0.00 0.00 63 1018.8
20260507031235 51 354 4.0 4.0 0.00 0.00 0.00 63 1019.0
20260507030731 51 346 2.0 4.0 0.00 0.00 0.00 63 1018.8
20260507030229 51 345 2.0 4.0 0.00 0.00 0.00 63 1018.8
20260507025726 51 355 4.0 4.0 0.00 0.00 0.00 63 1018.7
20260507025223 51 344 3.0 4.0 0.00 0.00 0.00 63 1018.9
20260507024721 52 312 2.0 4.0 0.00 0.00 0.00 63 1018.6
20260507024218 52 69 2.0 5.0 0.00 0.00 0.00 63 1018.6
20260507023713 52 359 2.0 4.0 0.00 0.00 0.00 63 1018.6
20260507023211 52 340 1.0 2.0 0.00 0.00 0.00 64 1018.6
20260507022708 52 50 2.0 3.0 0.00 0.00 0.00 62 1018.5
20260507022203 53 23 3.0 4.0 0.00 0.00 0.00 61 1018.5
20260507021700 53 354 2.0 2.0 0.00 0.00 0.00 62 1018.4
20260507021155 53 359 2.0 3.0 0.00 0.00 0.00 61 1018.4
20260507020654 53 5 1.0 2.0 0.00 0.00 0.00 61 1018.5
20260507020150 53 75 0.0 2.0 0.00 0.00 0.00 61 1018.2
20260507015648 54 7 2.0 2.0 0.00 0.00 0.00 59 1018.3
20260507015145 54 110 0.0 2.0 0.00 0.00 0.00 59 1018.1
20260507014642 54 10 2.0 3.0 0.00 0.00 0.00 58 1018.2
20260507014138 54 43 1.0 2.0 0.00 0.00 0.00 58 1017.9
20260507013635 55 52 2.0 4.0 0.00 0.00 0.00 57 1018.1
20260507013132 55 353 2.0 2.0 0.00 0.00 0.00 56 1018.0
20260507012629 55 14 2.0 3.0 0.00 0.00 0.00 55 1017.9
20260507012124 55 16 2.0 3.0 0.00 0.00 0.00 55 1017.8
20260507011623 56 35 3.0 4.0 0.00 0.00 0.00 55 1017.8
20260507011119 56 347 1.0 4.0 0.00 0.00 0.00 54 1017.9
20260507010614 56 352 4.0 4.0 0.00 0.00 0.00 53 1017.8
20260507010110 57 315 2.0 4.0 0.00 0.00 0.00 53 1017.6
20260507005608 57 47 3.0 4.0 0.00 0.00 0.00 53 1017.8
20260507005103 57 355 2.0 6.0 0.00 0.00 0.00 52 1017.9
20260507004601 57 342 4.0 6.0 0.00 0.00 0.00 52 1017.8
20260507004058 57 338 4.0 6.0 0.00 0.00 0.00 51 1017.8
20260507003554 57 14 4.0 5.0 0.00 0.00 0.00 52 1017.6
20260507003049 57 275 2.0 5.0 0.00 0.00 0.00 52 1017.6
20260507002546 57 339 4.0 6.0 0.00 0.00 0.00 51 1017.4
20260507002042 58 359 4.0 7.0 0.00 0.00 0.00 50 1017.4
20260507001539 58 359 2.0 7.0 0.00 0.00 0.00 50 1017.4
20260507001036 58 356 4.0 8.0 0.00 0.00 0.00 50 1017.3
20260507000532 58 23 3.0 9.0 0.00 0.00 0.00 49 1017.2
20260507000028 59 37 2.0 9.0 0.00 0.00 0.00 49 1017.1
20260506235525 59 348 9.0 10.0 0.00 0.00 0.00 47 1016.9
20260506235021 59 354 6.0 14.0 0.00 0.00 0.00 46 1017.1
20260506234519 59 352 4.0 10.0 0.00 0.00 0.00 47 1017.0
20260506234016 59 357 4.0 10.0 0.00 0.00 0.00 47 1016.9
20260506233512 60 359 5.0 8.0 0.00 0.00 0.00 44 1016.7
20260506233009 60 329 5.0 12.0 0.00 0.00 0.00 46 1016.3
20260506232505 60 307 15.0 16.0 0.00 0.00 0.00 44 1016.3
20260506232001 60 335 7.0 14.0 0.00 0.00 0.00 45 1016.5
20260506231458 60 342 11.0 15.0 0.00 0.00 0.00 44 1016.5
20260506230956 60 301 4.0 10.0 0.00 0.00 0.00 45 1016.6
20260506230452 60 359 7.0 15.0 0.00 0.00 0.00 43 1016.8
20260506225949 60 14 8.0 15.0 0.00 0.00 0.00 45 1016.8
20260506225446 60 344 10.0 15.0 0.00 0.00 0.00 44 1016.6
20260506224943 60 344 11.0 17.0 0.00 0.00 0.00 44 1016.5
20260506224440 60 44 6.0 13.0 0.00 0.00 0.00 45 1016.6
20260506223936 60 334 13.0 15.0 0.00 0.00 0.00 44 1016.5
20260506223432 60 338 7.0 16.0 0.00 0.00 0.00 45 1016.6
20260506222930 61 3 5.0 9.0 0.00 0.00 0.00 45 1016.6
20260506222426 60 31 7.0 14.0 0.00 0.00 0.00 45 1016.6
20260506221923 61 39 7.0 9.0 0.00 0.00 0.00 44 1016.4
20260506221420 60 39 12.0 13.0 0.00 0.00 0.00 45 1016.3
20260506220918 60 27 9.0 14.0 0.00 0.00 0.00 45 1016.4
20260506220413 60 39 14.0 15.0 0.00 0.00 0.00 46 1016.6
20260506215910 60 26 9.0 16.0 0.00 0.00 0.00 44 1016.4
20260506215406 60 30 9.0 19.0 0.00 0.00 0.00 46 1016.5
20260506214902 61 16 9.0 11.0 0.00 0.00 0.00 46 1016.5
20260506214359 60 312 12.0 15.0 0.00 0.00 0.00 44 1016.6
20260506213857 61 305 12.0 13.0 0.00 0.00 0.00 43 1016.4
20260506213354 60 333 5.0 18.0 0.00 0.00 0.00 45 1016.6
20260506212851 60 355 9.0 15.0 0.00 0.00 0.00 45 1016.6
20260506212347 61 314 11.0 15.0 0.00 0.00 0.00 45 1016.6
20260506211842 59 31 2.0 11.0 0.00 0.00 0.00 47 1016.8
20260506211338 59 77 3.0 11.0 0.00 0.00 0.00 48 1016.9
20260506210836 60 27 11.0 12.0 0.00 0.00 0.00 47 1016.8
20260506210332 60 33 9.0 14.0 0.00 0.00 0.00 46 1017.0
20260506205830 59 347 15.0 15.0 0.00 0.00 0.00 47 1017.0
20260506205326 59 8 8.0 15.0 0.00 0.00 0.00 46 1017.2
20260506204822 61 308 5.0 11.0 0.00 0.00 0.00 46 1017.1
20260506204320 61 28 15.0 17.0 0.00 0.00 0.00 45 1017.3
20260506203817 61 28 6.0 6.0 0.00 0.00 0.00 45 1017.1
20260506203314 60 23 7.0 10.0 0.00 0.00 0.00 46 1017.2
20260506202811 60 20 12.0 17.0 0.00 0.00 0.00 45 1017.1
20260506202308 60 347 11.0 17.0 0.00 0.00 0.00 46 1016.9
20260506201804 59 350 12.0 16.0 0.00 0.00 0.00 48 1017.1
20260506201302 60 29 13.0 16.0 0.00 0.00 0.00 48 1017.2
20260506200759 59 28 13.0 15.0 0.00 0.00 0.00 48 1017.2
20260506200255 60 15 12.0 16.0 0.00 0.00 0.00 47 1017.4
20260506195751 59 351 11.0 18.0 0.00 0.00 0.00 45 1017.2
20260506195248 60 36 7.0 14.0 0.00 0.00 0.00 48 1017.4
20260506194745 59 18 9.0 15.0 0.00 0.00 0.00 47 1017.6
20260506194242 60 311 11.0 12.0 0.00 0.00 0.00 46 1017.6
20260506193740 59 27 16.0 17.0 0.00 0.00 0.00 47 1017.9
20260506193236 60 25 11.0 17.0 0.00 0.00 0.00 47 1017.8
20260506192732 58 333 8.0 25.0 0.00 0.00 0.00 48 1017.8
20260506192229 60 348 3.0 9.0 0.00 0.00 0.00 47 1018.0
20260506191726 58 341 5.0 13.0 0.00 0.00 0.00 49 1018.2
20260506191222 58 39 5.0 11.0 0.00 0.00 0.00 49 1018.1
20260506190720 59 43 6.0 10.0 0.00 0.00 0.00 49 1017.9
20260506190216 59 32 5.0 8.0 0.00 0.00 0.00 48 1018.1
20260506185714 58 311 3.0 12.0 0.00 0.00 0.00 54 1018.2
20260506185209 58 12 8.0 14.0 0.00 0.00 0.00 51 1018.4
20260506184702 59 31 5.0 7.0 0.00 0.00 0.00 50 1018.3
20260506184159 59 295 4.0 5.0 0.00 0.00 0.00 50 1018.4
20260506183655 59 29 12.0 15.0 0.00 0.00 0.00 49 1018.5
20260506183151 57 18 9.0 17.0 0.00 0.00 0.00 51 1018.8
20260506182649 57 26 10.0 16.0 0.00 0.00 0.00 51 1019.0
20260506182145 57 31 17.0 18.0 0.00 0.00 0.00 50 1019.0
20260506181643 57 45 5.0 9.0 0.00 0.00 0.00 52 1019.1
20260506181140 58 40 5.0 11.0 0.00 0.00 0.00 51 1019.2
20260506180637 56 45 4.0 14.0 0.00 0.00 0.00 51 1019.2
20260506180133 57 44 3.0 12.0 0.00 0.00 0.00 53 1019.2
20260506175630 57 346 8.0 11.0 0.00 0.00 0.00 52 1019.0
20260506175126 56 16 9.0 14.0 0.00 0.00 0.00 52 1018.9
20260506174625 56 328 9.0 15.0 0.00 0.00 0.00 55 1018.9
20260506174121 56 14 7.0 9.0 0.00 0.00 0.00 54 1019.2
20260506173619 56 348 8.0 11.0 0.00 0.00 0.00 54 1019.2
20260506173115 57 352 4.0 4.0 0.00 0.00 0.00 54 1019.2
20260506172613 55 27 8.0 11.0 0.00 0.00 0.00 55 1019.2
20260506172109 55 39 9.0 16.0 0.00 0.00 0.00 58 1019.3
20260506171607 55 20 7.0 11.0 0.00 0.00 0.00 56 1019.2
20260506171104 56 71 3.0 9.0 0.00 0.00 0.00 56 1019.5
20260506170601 55 356 5.0 9.0 0.00 0.00 0.00 56 1019.4
20260506170059 55 349 7.0 13.0 0.00 0.00 0.00 57 1019.4
20260506165557 55 337 7.0 8.0 0.00 0.00 0.00 58 1018.8
20260506165053 55 44 3.0 12.0 0.00 0.00 0.00 59 1018.8
20260506164550 55 22 8.0 13.0 0.00 0.00 0.00 59 1018.7
20260506164047 54 358 5.0 12.0 0.00 0.00 0.00 60 1018.6
20260506163543 55 35 9.0 13.0 0.00 0.00 0.00 61 1018.5
20260506163039 53 26 8.0 12.0 0.00 0.00 0.00 61 1018.5
20260506162536 54 26 8.0 16.0 0.00 0.00 0.00 60 1018.5
20260506162033 54 30 10.0 15.0 0.00 0.00 0.00 60 1018.5
20260506161530 54 6 4.0 11.0 0.00 0.00 0.00 58 1018.1
20260506161027 54 43 8.0 11.0 0.00 0.00 0.00 59 1018.2
20260506160525 54 37 8.0 13.0 0.00 0.00 0.00 58 1018.3
20260506160022 55 69 7.0 11.0 0.00 0.00 0.00 58 1018.3
20260506155520 54 41 9.0 11.0 0.00 0.00 0.00 59 1018.3
20260506153651 53 38 9.0 13.0 0.00 0.00 0.00 63 1018.0
20260506153149 53 26 17.0 18.0 0.00 0.00 0.00 62 1018.0
20260506152645 53 79 10.0 14.0 0.00 0.00 0.00 62 1017.8
20260506152143 52 26 10.0 14.0 0.00 0.00 0.00 64 1018.1
20260506151642 52 33 15.0 15.0 0.00 0.00 0.00 63 1018.0
20260506151138 52 39 12.0 15.0 0.00 0.00 0.00 64 1018.0
20260506150635 52 43 9.0 14.0 0.00 0.00 0.00 64 1018.1
20260506150132 52 41 8.0 13.0 0.00 0.00 0.00 66 1018.1
20260506145629 51 38 11.0 13.0 0.00 0.00 0.00 66 1018.3
20260506145125 50 32 11.0 14.0 0.00 0.00 0.00 70 1018.0
20260506144623 50 43 12.0 14.0 0.00 0.00 0.00 73 1017.8
20260506144119 50 57 13.0 13.0 0.00 0.00 0.00 73 1018.0
20260506143617 49 28 9.0 12.0 0.00 0.00 0.00 73 1018.0
20260506143115 50 40 5.0 7.0 0.00 0.00 0.00 77 1017.9
20260506142613 49 31 5.0 8.0 0.00 0.00 0.00 76 1018.4
20260506142111 49 22 5.0 9.0 0.00 0.00 0.00 76 1018.1
20260506141608 48 31 10.0 13.0 0.00 0.00 0.00 77 1018.1
20260506141107 48 36 10.0 12.0 0.00 0.00 0.00 78 1018.1
20260506140604 48 23 4.0 8.0 0.00 0.00 0.00 78 1018.3
20260506140101 48 11 7.0 12.0 0.00 0.00 0.00 77 1018.1
20260506135558 47 16 5.0 9.0 0.00 0.00 0.00 79 1018.1
20260506135054 47 47 7.0 11.0 0.00 0.00 0.00 82 1018.1
20260506134551 46 34 6.0 13.0 0.00 0.00 0.00 81 1018.1
20260506134046 46 12 6.0 12.0 0.00 0.00 0.00 83 1018.1
20260506133544 46 5 8.0 11.0 0.00 0.00 0.00 83 1018.0
20260506133041 46 11 8.0 12.0 0.00 0.00 0.00 83 1018.2